Time,TemperatureF,DewpointF,PressureIn,WindDirection,WindDirectionDegrees,WindSpeedMPH,WindSpeedGustMPH,Humidity,HourlyPrecipIn,Conditions,Clouds,dailyrainin,SolarRadiationWatts/m^2,SoftwareType,DateUTC
2013-06-15 00:01:00,68.1,57.1,29.95,ENE,74,9.0,15.0,68,0.00,RA,SCT,0.00,0.0,WeatherDisplay:10.37,2013-06-15 10:01:00,
2013-06-15 00:11:00,68.3,56.9,29.95,East,82,7.0,15.0,67,0.00,CLR,SCT,0.00,0.0,WeatherDisplay:10.37,2013-06-15 10:11:00,
2013-06-15 00:21:00,68.1,57.1,29.95,East,85,8.0,17.0,68,0.00,CLR,SCT,0.00,0.0,WeatherDisplay:10.37,2013-06-15 10:21:00,
2013-06-15 00:31:00,67.8,56.9,29.95,East,88,9.0,18.0,68,0.00,CLR,SCT,0.00,0.0,WeatherDisplay:10.37,2013-06-15 10:31:00,
2013-06-15 00:41:00,67.7,55.9,29.95,East,101,7.0,15.0,66,0.00,CLR,SCT,0.00,0.0,WeatherDisplay:10.37,2013-06-15 10:41:00,
2013-06-15 00:51:00,67.7,55.5,29.94,East,92,7.0,13.0,65,0.00,CLR,SCT,0.00,0.0,WeatherDisplay:10.37,2013-06-15 10:51:00,
2013-06-15 01:01:00,67.6,57.0,29.94,ENE,76,7.0,12.0,69,0.00,CLR,SCT,0.00,0.0,WeatherDisplay:10.37,2013-06-15 11:01:00,
2013-06-15 01:11:00,67.3,58.0,29.94,East,84,7.0,14.0,72,0.00,CLR,SCT,0.00,0.0,WeatherDisplay:10.37,2013-06-15 11:11:00,
2013-06-15 01:21:00,66.8,59.7,29.93,East,84,7.0,16.0,78,0.00,CLR,SCT,0.00,0.0,WeatherDisplay:10.37,2013-06-15 11:21:00,
2013-06-15 01:31:00,66.8,59.3,29.93,ESE,107,9.0,15.0,77,0.00,CLR,SCT,0.00,0.0,WeatherDisplay:10.37,2013-06-15 11:31:00,
2013-06-15 01:41:00,67.0,58.4,29.93,East,101,14.0,18.0,74,0.00,CLR,SCT,0.00,0.0,WeatherDisplay:10.37,2013-06-15 11:41:00,
2013-06-15 01:51:00,67.7,58.3,29.92,East,99,10.0,20.0,72,0.00,CLR,SCT,0.00,0.0,WeatherDisplay:10.37,2013-06-15 11:51:00,
2013-06-15 02:01:00,68.0,58.2,29.92,East,91,9.0,16.0,71,0.00,CLR,SCT,0.00,0.0,WeatherDisplay:10.37,2013-06-15 12:01:00,
2013-06-15 02:11:00,68.1,57.9,29.92,East,85,8.0,21.0,70,0.00,CLR,SCT,0.00,0.0,WeatherDisplay:10.37,2013-06-15 12:11:00,
2013-06-15 02:21:00,68.3,58.1,29.92,East,85,10.0,21.0,70,0.00,CLR,SCT,0.00,0.0,WeatherDisplay:10.37,2013-06-15 12:21:00,
2013-06-15 02:31:00,68.2,58.0,29.92,ESE,107,3.0,14.0,70,0.00,CLR,SCT,0.00,0.0,WeatherDisplay:10.37,2013-06-15 12:31:00,
2013-06-15 02:41:00,67.8,58.1,29.92,East,79,5.0,13.0,71,0.00,CLR,SCT,0.00,0.0,WeatherDisplay:10.37,2013-06-15 12:41:00,
2013-06-15 02:51:00,67.6,57.9,29.92,East,82,10.0,16.0,71,0.00,CLR,SCT,0.00,0.0,WeatherDisplay:10.37,2013-06-15 12:51:00,
2013-06-15 03:01:00,67.8,58.0,29.92,East,90,6.0,15.0,71,0.00,CLR,SCT,0.00,0.0,WeatherDisplay:10.37,2013-06-15 13:01:00,
2013-06-15 03:11:00,67.9,57.8,29.92,East,101,6.0,16.0,70,0.00,CLR,SCT,0.00,0.0,WeatherDisplay:10.37,2013-06-15 13:11:00,
2013-06-15 03:21:00,67.6,57.8,29.92,ESE,107,6.0,12.0,71,0.00,CLR,SCT,0.00,0.0,WeatherDisplay:10.37,2013-06-15 13:21:00,
2013-06-15 03:31:00,67.2,57.1,29.92,ESE,113,6.0,8.0,70,0.00,CLR,SCT,0.00,0.0,WeatherDisplay:10.37,2013-06-15 13:31:00,
2013-06-15 03:41:00,67.1,57.0,29.92,ESE,120,7.0,12.0,70,0.00,CLR,SCT,0.00,0.0,WeatherDisplay:10.37,2013-06-15 13:41:00,
2013-06-15 03:51:00,67.5,56.6,29.92,East,92,9.0,18.0,68,0.00,CLR,SCT,0.00,0.0,WeatherDisplay:10.37,2013-06-15 13:51:00,
2013-06-15 04:01:00,67.7,56.8,29.92,ESE,112,7.0,13.0,68,0.00,CLR,SCT,0.00,0.0,WeatherDisplay:10.37,2013-06-15 14:01:00,
2013-06-15 04:11:00,67.7,56.8,29.92,East,96,9.0,16.0,68,0.00,CLR,SCT,0.00,0.0,WeatherDisplay:10.37,2013-06-15 14:11:00,
2013-06-15 04:21:00,67.7,56.8,29.92,East,94,9.0,13.0,68,0.00,CLR,SCT,0.00,0.0,WeatherDisplay:10.37,2013-06-15 14:21:00,
2013-06-15 04:31:00,67.7,56.3,29.92,East,93,8.0,14.0,67,0.00,CLR,SCT,0.00,0.0,WeatherDisplay:10.37,2013-06-15 14:31:00,
2013-06-15 04:41:00,68.1,56.3,29.92,East,82,6.0,16.0,66,0.00,CLR,SCT,0.00,0.0,WeatherDisplay:10.37,2013-06-15 14:41:00,
2013-06-15 04:51:00,68.1,56.3,29.91,ENE,77,5.0,10.0,66,0.00,CLR,SCT,0.00,0.0,WeatherDisplay:10.37,2013-06-15 14:51:00,
2013-06-15 05:01:00,68.1,56.3,29.91,ENE,62,6.0,9.0,66,0.00,CLR,SCT,0.00,0.0,WeatherDisplay:10.37,2013-06-15 15:01:00,
2013-06-15 05:11:00,67.8,56.4,29.92,East,97,6.0,22.0,67,0.00,CLR,SCT,0.00,0.0,WeatherDisplay:10.37,2013-06-15 15:11:00,
2013-06-15 05:21:00,67.6,56.2,29.92,East,87,7.0,12.0,67,0.00,CLR,SCT,0.00,0.0,WeatherDisplay:10.37,2013-06-15 15:21:00,
2013-06-15 05:31:00,67.8,56.0,29.92,East,92,9.0,18.0,66,0.00,CLR,SCT,0.00,0.0,WeatherDisplay:10.37,2013-06-15 15:31:00,
2013-06-15 05:41:00,67.7,55.9,29.93,East,90,6.0,12.0,66,0.00,CLR,SCT,0.00,0.0,WeatherDisplay:10.37,2013-06-15 15:41:00,
2013-06-15 05:51:00,67.6,55.8,29.93,East,95,6.0,12.0,66,0.00,CLR,SCT,0.00,0.1,WeatherDisplay:10.37,2013-06-15 15:51:00,
2013-06-15 06:01:00,67.8,56.4,29.93,East,100,7.0,20.0,67,0.00,CLR,SCT,0.00,0.4,WeatherDisplay:10.37,2013-06-15 16:01:00,
2013-06-15 06:11:00,67.7,56.3,29.94,ESE,103,8.0,17.0,67,0.00,CLR,SCT,0.00,0.8,WeatherDisplay:10.37,2013-06-15 16:11:00,
2013-06-15 06:21:00,67.8,56.4,29.94,East,94,7.0,18.0,67,0.00,CLR,SCT,0.00,1.3,WeatherDisplay:10.37,2013-06-15 16:21:00,
2013-06-15 06:31:00,68.0,56.6,29.94,East,94,6.0,16.0,67,0.00,CLR,SCT,0.00,12.8,WeatherDisplay:10.37,2013-06-15 16:31:00,
2013-06-15 06:41:00,67.8,57.3,29.94,East,90,6.0,12.0,69,0.00,FEW,SCT,0.00,4.6,WeatherDisplay:10.37,2013-06-15 16:41:00,
2013-06-15 06:51:00,67.7,57.9,29.94,East,79,8.0,13.0,71,0.00,FEW,SCT,0.00,30.8,WeatherDisplay:10.37,2013-06-15 16:51:00,
2013-06-15 07:01:00,68.2,58.0,29.94,East,92,6.0,13.0,70,0.00,FEW,SCT,0.00,8.1,WeatherDisplay:10.37,2013-06-15 17:01:00,
2013-06-15 07:11:00,68.8,59.0,29.94,East,80,6.0,10.0,71,0.00,SCT,SCT,0.00,9.3,WeatherDisplay:10.37,2013-06-15 17:11:00,
2013-06-15 07:21:00,69.0,59.2,29.94,ENE,65,6.0,13.0,71,0.00,SCT,SCT,0.00,12.3,WeatherDisplay:10.37,2013-06-15 17:21:00,
2013-06-15 07:31:00,68.6,59.6,29.95,ENE,74,3.0,10.0,73,0.00,SCT,SCT,0.00,117.1,WeatherDisplay:10.37,2013-06-15 17:31:00,
2013-06-15 07:41:00,69.0,60.3,29.95,ENE,78,1.0,8.0,74,0.00,SCT,SCT,0.00,124.9,WeatherDisplay:10.37,2013-06-15 17:41:00,
2013-06-15 07:51:00,70.1,58.6,29.95,East,91,6.0,14.0,67,0.00,SCT,SCT,0.00,142.4,WeatherDisplay:10.37,2013-06-15 17:51:00,
2013-06-15 08:01:00,72.3,60.3,29.95,East,84,8.0,13.0,66,0.00,SCT,SCT,0.00,161.1,WeatherDisplay:10.37,2013-06-15 18:01:00,
2013-06-15 08:11:00,72.6,63.5,29.95,ENE,69,12.0,16.0,73,0.00,SCT,SCT,0.00,189.6,WeatherDisplay:10.37,2013-06-15 18:11:00,
2013-06-15 08:21:00,72.1,62.9,29.95,ENE,73,9.0,16.0,73,0.00,SCT,SCT,0.00,82.6,WeatherDisplay:10.37,2013-06-15 18:21:00,
2013-06-15 08:31:00,71.5,63.5,29.95,ENE,76,8.0,15.0,76,0.00,SCT,SCT,0.00,227.5,WeatherDisplay:10.37,2013-06-15 18:31:00,
2013-06-15 08:41:00,72.6,64.6,29.95,ENE,65,8.0,16.0,76,0.00,SCT,SCT,0.00,256.1,WeatherDisplay:10.37,2013-06-15 18:41:00,
2013-06-15 08:51:00,72.8,64.8,29.95,ENE,62,8.0,21.0,76,0.00,SCT,SCT,0.00,287.1,WeatherDisplay:10.37,2013-06-15 18:51:00,
2013-06-15 09:01:00,72.2,65.0,29.95,ENE,68,8.0,17.0,78,0.00,SCT,SCT,0.00,119.0,WeatherDisplay:10.37,2013-06-15 19:01:00,
2013-06-15 09:11:00,72.3,64.7,29.94,ENE,78,12.0,20.0,77,0.00,SCT,SCT,0.00,313.3,WeatherDisplay:10.37,2013-06-15 19:11:00,
2013-06-15 09:21:00,73.9,65.8,29.94,ENE,69,8.0,15.0,76,0.00,SCT,SCT,0.00,325.5,WeatherDisplay:10.37,2013-06-15 19:21:00,
2013-06-15 09:31:00,75.4,65.7,29.94,ENE,68,9.0,18.0,72,0.00,SCT,SCT,0.00,357.8,WeatherDisplay:10.37,2013-06-15 19:31:00,
2013-06-15 09:41:00,75.7,65.6,29.94,ENE,69,13.0,23.0,71,0.00,FEW,SCT,0.00,414.9,WeatherDisplay:10.37,2013-06-15 19:41:00,
2013-06-15 09:51:00,75.0,65.0,29.94,ENE,67,10.0,20.0,71,0.00,FEW,SCT,0.00,434.2,WeatherDisplay:10.37,2013-06-15 19:51:00,
2013-06-15 10:01:00,75.3,65.6,29.94,ENE,77,8.0,16.0,72,0.00,FEW,SCT,0.00,547.1,WeatherDisplay:10.37,2013-06-15 20:01:00,
2013-06-15 10:11:00,75.8,66.2,29.94,ENE,74,8.0,14.0,72,0.00,CLR,SCT,0.00,449.2,WeatherDisplay:10.37,2013-06-15 20:11:00,
2013-06-15 10:21:00,76.5,66.0,29.94,ENE,71,10.0,16.0,70,0.00,CLR,SCT,0.00,491.7,WeatherDisplay:10.37,2013-06-15 20:21:00,
2013-06-15 10:31:00,76.6,66.9,29.93,ENE,68,9.0,21.0,72,0.00,CLR,SCT,0.00,568.2,WeatherDisplay:10.37,2013-06-15 20:31:00,
2013-06-15 10:41:00,76.6,65.7,29.93,ENE,75,10.0,21.0,69,0.00,CLR,SCT,0.00,570.5,WeatherDisplay:10.37,2013-06-15 20:41:00,
2013-06-15 10:51:00,77.4,67.2,29.93,ENE,76,10.0,18.0,71,0.00,CLR,SCT,0.00,561.5,WeatherDisplay:10.37,2013-06-15 20:51:00,
2013-06-15 11:01:00,77.3,66.7,29.93,ENE,66,14.0,20.0,70,0.00,CLR,SCT,0.00,627.3,WeatherDisplay:10.37,2013-06-15 21:01:00,
2013-06-15 11:11:00,76.0,67.5,29.93,ENE,68,8.0,20.0,75,0.00,CLR,SCT,0.00,284.4,WeatherDisplay:10.37,2013-06-15 21:11:00,
2013-06-15 11:21:00,76.5,67.2,29.92,ENE,62,8.0,18.0,73,0.00,SCT,SCT,0.00,238.5,WeatherDisplay:10.37,2013-06-15 21:21:00,
2013-06-15 11:31:00,76.1,66.8,29.92,ENE,71,10.0,18.0,73,0.00,SCT,SCT,0.00,274.1,WeatherDisplay:10.37,2013-06-15 21:31:00,
2013-06-15 11:41:00,75.5,67.8,29.92,ENE,69,8.0,17.0,77,0.00,SCT,SCT,0.00,489.0,WeatherDisplay:10.37,2013-06-15 21:41:00,
2013-06-15 11:51:00,75.8,67.0,29.92,ENE,61,14.0,21.0,74,0.00,SCT,SCT,0.00,579.0,WeatherDisplay:10.37,2013-06-15 21:51:00,
2013-06-15 12:01:00,77.4,67.3,29.91,ENE,74,12.0,20.0,71,0.00,SCT,SCT,0.00,605.9,WeatherDisplay:10.37,2013-06-15 22:01:00,
2013-06-15 12:11:00,78.6,68.9,29.91,ENE,59,12.0,21.0,72,0.00,SCT,SCT,0.00,706.2,WeatherDisplay:10.37,2013-06-15 22:11:00,
2013-06-15 12:21:00,79.1,68.5,29.91,ENE,64,9.0,21.0,70,0.00,SCT,SCT,0.00,648.4,WeatherDisplay:10.37,2013-06-15 22:21:00,
2013-06-15 12:31:00,78.8,66.9,29.90,ENE,68,14.0,25.0,67,0.00,SCT,SCT,0.00,196.6,WeatherDisplay:10.37,2013-06-15 22:31:00,
2013-06-15 12:41:00,78.4,67.8,29.90,ENE,66,13.0,25.0,70,0.00,SCT,SCT,0.00,625.2,WeatherDisplay:10.37,2013-06-15 22:41:00,
2013-06-15 12:51:00,78.1,67.1,29.89,ENE,58,14.0,28.0,69,0.00,SCT,SCT,0.00,665.6,WeatherDisplay:10.37,2013-06-15 22:51:00,
2013-06-15 13:01:00,78.8,67.7,29.89,ENE,65,13.0,24.0,69,0.00,SCT,SCT,0.00,701.0,WeatherDisplay:10.37,2013-06-15 23:01:00,
2013-06-15 13:11:00,79.3,68.2,29.89,ENE,72,12.0,24.0,69,0.00,SCT,SCT,0.00,621.2,WeatherDisplay:10.37,2013-06-15 23:11:00,
2013-06-15 13:21:00,79.2,67.7,29.89,ENE,60,14.0,23.0,68,0.00,SCT,SCT,0.00,596.4,WeatherDisplay:10.37,2013-06-15 23:21:00,
2013-06-15 13:31:00,79.2,66.9,29.89,ENE,77,13.0,24.0,66,0.00,SCT,SCT,0.00,570.7,WeatherDisplay:10.37,2013-06-15 23:31:00,
2013-06-15 13:41:00,79.4,67.5,29.88,ENE,75,13.0,20.0,67,0.00,SCT,SCT,0.00,465.7,WeatherDisplay:10.37,2013-06-15 23:41:00,
2013-06-15 13:51:00,79.4,67.9,29.87,ENE,69,14.0,23.0,68,0.00,SCT,SCT,0.00,572.0,WeatherDisplay:10.37,2013-06-15 23:51:00,
2013-06-15 14:01:00,80.0,68.1,29.87,ENE,75,10.0,20.0,67,0.00,SCT,SCT,0.00,534.5,WeatherDisplay:10.37,2013-06-16 00:01:00,
2013-06-15 14:11:00,79.6,67.2,29.87,ENE,75,13.0,25.0,66,0.00,SCT,SCT,0.00,512.9,WeatherDisplay:10.37,2013-06-16 00:11:00,
2013-06-15 14:21:00,79.3,67.8,29.86,ENE,64,10.0,20.0,68,0.00,SCT,SCT,0.00,503.9,WeatherDisplay:10.37,2013-06-16 00:21:00,
2013-06-15 14:31:00,79.4,67.9,29.86,ENE,71,13.0,21.0,68,0.00,SCT,SCT,0.00,474.6,WeatherDisplay:10.37,2013-06-16 00:31:00,
2013-06-15 14:41:00,78.0,66.6,29.86,East,80,10.0,23.0,68,0.00,SCT,SCT,0.00,282.8,WeatherDisplay:10.37,2013-06-16 00:41:00,
2013-06-15 14:51:00,78.2,67.2,29.86,ENE,77,10.0,23.0,69,0.00,SCT,SCT,0.00,226.1,WeatherDisplay:10.37,2013-06-16 00:51:00,
2013-06-15 15:01:00,78.8,66.5,29.86,East,80,13.0,22.0,66,0.00,SCT,SCT,0.00,219.1,WeatherDisplay:10.37,2013-06-16 01:01:00,
2013-06-15 15:11:00,77.6,66.2,29.86,East,90,9.0,22.0,68,0.00,SCT,SCT,0.00,148.1,WeatherDisplay:10.37,2013-06-16 01:11:00,
2013-06-15 15:21:00,75.9,64.6,29.85,East,88,13.0,19.0,68,0.00,SCT,SCT,0.00,368.1,WeatherDisplay:10.37,2013-06-16 01:21:00,
2013-06-15 15:31:00,77.7,64.1,29.85,East,93,12.0,23.0,63,0.00,SCT,SCT,0.00,118.3,WeatherDisplay:10.37,2013-06-16 01:31:00,
2013-06-15 15:41:00,78.9,64.8,29.85,East,87,13.0,22.0,62,0.00,FEW,SCT,0.00,336.9,WeatherDisplay:10.37,2013-06-16 01:41:00,
2013-06-15 15:51:00,79.4,64.8,29.85,East,92,9.0,18.0,61,0.00,FEW,SCT,0.00,322.6,WeatherDisplay:10.37,2013-06-16 01:51:00,
2013-06-15 16:01:00,79.2,65.1,29.85,East,80,9.0,18.0,62,0.00,FEW,SCT,0.00,317.5,WeatherDisplay:10.37,2013-06-16 02:01:00,
2013-06-15 16:11:00,78.5,65.8,29.85,East,97,7.0,14.0,65,0.00,FEW,SCT,0.00,280.4,WeatherDisplay:10.37,2013-06-16 02:11:00,
2013-06-15 16:21:00,77.5,65.7,29.85,East,91,10.0,18.0,67,0.00,SCT,SCT,0.00,61.1,WeatherDisplay:10.37,2013-06-16 02:21:00,
2013-06-15 16:31:00,76.4,65.1,29.85,East,94,10.0,20.0,68,0.00,SCT,SCT,0.00,84.1,WeatherDisplay:10.37,2013-06-16 02:31:00,
2013-06-15 16:41:00,76.4,65.5,29.85,East,88,10.0,17.0,69,0.00,SCT,SCT,0.00,188.7,WeatherDisplay:10.37,2013-06-16 02:41:00,
2013-06-15 16:51:00,76.6,65.7,29.86,East,91,10.0,17.0,69,0.00,SCT,SCT,0.00,165.8,WeatherDisplay:10.37,2013-06-16 02:51:00,
2013-06-15 17:01:00,76.6,65.6,29.86,East,82,12.0,18.0,69,0.00,SCT,SCT,0.00,149.4,WeatherDisplay:10.37,2013-06-16 03:01:00,
2013-06-15 17:11:00,76.3,66.6,29.86,ENE,72,10.0,18.0,72,0.00,SCT,SCT,0.00,120.0,WeatherDisplay:10.37,2013-06-16 03:11:00,
2013-06-15 17:21:00,73.9,66.3,29.86,East,80,13.0,23.0,77,0.00,FEW,SCT,0.00,112.5,WeatherDisplay:10.37,2013-06-16 03:21:00,
2013-06-15 17:31:00,72.7,65.8,29.86,East,80,12.0,20.0,79,0.00,FEW,SCT,0.00,92.4,WeatherDisplay:10.37,2013-06-16 03:31:00,
2013-06-15 17:41:00,72.7,65.4,29.87,East,83,7.0,20.0,78,0.00,FEW,SCT,0.00,81.9,WeatherDisplay:10.37,2013-06-16 03:41:00,
2013-06-15 17:51:00,73.2,65.2,29.87,ENE,72,7.0,14.0,76,0.00,FEW,SCT,0.00,67.8,WeatherDisplay:10.37,2013-06-16 03:51:00,
2013-06-15 18:01:00,72.8,64.4,29.86,ENE,70,8.0,14.0,75,0.00,FEW,SCT,0.00,55.9,WeatherDisplay:10.37,2013-06-16 04:01:00,
2013-06-15 18:11:00,72.1,63.7,29.86,ENE,75,10.0,20.0,75,0.00,FEW,SCT,0.00,42.1,WeatherDisplay:10.37,2013-06-16 04:11:00,
2013-06-15 18:21:00,72.1,63.4,29.87,East,84,8.0,18.0,74,0.00,SCT,SCT,0.00,30.2,WeatherDisplay:10.37,2013-06-16 04:21:00,
2013-06-15 18:31:00,71.9,63.2,29.87,East,82,3.0,14.0,74,0.00,SCT,SCT,0.00,4.3,WeatherDisplay:10.37,2013-06-16 04:31:00,
2013-06-15 18:41:00,71.0,64.2,29.87,ENE,73,7.0,15.0,79,0.00,SCT,SCT,0.00,5.4,WeatherDisplay:10.37,2013-06-16 04:41:00,
2013-06-15 18:51:00,70.1,64.0,29.88,ENE,66,6.0,13.0,81,0.00,SCT,SCT,0.00,0.6,WeatherDisplay:10.37,2013-06-16 04:51:00,
2013-06-15 19:01:00,69.3,63.2,29.88,ENE,76,9.0,16.0,81,0.00,SCT,SCT,0.00,0.1,WeatherDisplay:10.37,2013-06-16 05:01:00,
2013-06-15 19:11:00,69.1,62.3,29.88,East,83,7.0,16.0,79,0.00,FEW,SCT,0.00,0.0,WeatherDisplay:10.37,2013-06-16 05:11:00,
2013-06-15 19:21:00,68.8,63.0,29.89,ENE,77,6.0,16.0,82,0.00,FEW,SCT,0.00,0.0,WeatherDisplay:10.37,2013-06-16 05:21:00,
2013-06-15 19:31:00,68.2,63.2,29.89,ENE,76,10.0,20.0,84,0.00,FEW,SCT,0.00,0.0,WeatherDisplay:10.37,2013-06-16 05:31:00,
2013-06-15 19:41:00,67.9,63.2,29.89,ENE,77,8.0,16.0,85,0.00,FEW,SCT,0.00,0.0,WeatherDisplay:10.37,2013-06-16 05:41:00,
2013-06-15 19:51:00,67.9,62.9,29.90,East,86,7.0,13.0,84,0.00,FEW,SCT,0.00,0.0,WeatherDisplay:10.37,2013-06-16 05:51:00,
2013-06-15 20:01:00,67.9,62.5,29.90,East,86,5.0,17.0,83,0.00,FEW,SCT,0.00,0.0,WeatherDisplay:10.37,2013-06-16 06:01:00,
2013-06-15 20:11:00,68.1,62.7,29.90,ENE,67,8.0,14.0,83,0.00,CLR,SCT,0.00,0.0,WeatherDisplay:10.37,2013-06-16 06:11:00,
2013-06-15 20:21:00,68.0,62.6,29.90,ENE,68,8.0,13.0,83,0.00,CLR,SCT,0.00,0.0,WeatherDisplay:10.37,2013-06-16 06:21:00,
2013-06-15 20:31:00,67.8,62.4,29.90,ENE,72,7.0,12.0,83,0.00,CLR,SCT,0.00,0.0,WeatherDisplay:10.37,2013-06-16 06:31:00,
2013-06-15 20:41:00,67.7,63.0,29.90,ENE,65,8.0,18.0,85,0.00,CLR,SCT,0.00,0.0,WeatherDisplay:10.37,2013-06-16 06:41:00,
2013-06-15 21:11:00,67.7,62.3,29.91,East,79,7.0,14.0,83,0.00,CLR,SCT,0.00,0.0,WeatherDisplay:10.37,2013-06-16 07:11:00,
2013-06-15 21:21:00,67.6,62.5,29.91,ENE,73,12.0,17.0,84,0.00,FEW,SCT,0.00,0.0,WeatherDisplay:10.37,2013-06-16 07:21:00,
2013-06-15 21:31:00,67.4,62.1,29.92,East,96,7.0,22.0,83,0.00,FEW,SCT,0.00,0.0,WeatherDisplay:10.37,2013-06-16 07:31:00,
2013-06-15 21:41:00,67.5,61.5,29.92,East,99,6.0,12.0,81,0.00,FEW,SCT,0.00,0.0,WeatherDisplay:10.37,2013-06-16 07:41:00,
2013-06-15 21:51:00,67.6,60.9,29.92,East,89,6.0,12.0,79,0.00,FEW,SCT,0.00,0.0,WeatherDisplay:10.37,2013-06-16 07:51:00,
2013-06-15 22:01:00,67.9,60.8,29.92,East,80,6.0,12.0,78,0.00,FEW,SCT,0.00,0.0,WeatherDisplay:10.37,2013-06-16 08:01:00,
2013-06-15 22:11:00,67.7,60.2,29.92,East,92,5.0,12.0,77,0.00,FEW,SCT,0.00,0.0,WeatherDisplay:10.37,2013-06-16 08:11:00,
2013-06-15 22:21:00,67.6,59.8,29.92,East,80,6.0,12.0,76,0.00,FEW,SCT,0.00,0.0,WeatherDisplay:10.37,2013-06-16 08:21:00,
2013-06-15 22:31:00,67.7,59.9,29.92,East,86,8.0,14.0,76,0.00,FEW,SCT,0.00,0.0,WeatherDisplay:10.37,2013-06-16 08:31:00,
2013-06-15 22:41:00,67.7,59.9,29.92,East,84,7.0,14.0,76,0.00,FEW,SCT,0.00,0.0,WeatherDisplay:10.37,2013-06-16 08:41:00,
2013-06-15 22:51:00,67.7,60.2,29.92,East,81,7.0,13.0,77,0.00,FEW,SCT,0.00,0.0,WeatherDisplay:10.37,2013-06-16 08:51:00,
2013-06-15 23:01:00,67.5,60.4,29.92,East,91,3.0,13.0,78,0.00,FEW,SCT,0.00,0.0,WeatherDisplay:10.37,2013-06-16 09:01:00,
2013-06-15 23:11:00,67.5,60.4,29.92,ESE,103,6.0,12.0,78,0.00,FEW,SCT,0.00,0.0,WeatherDisplay:10.37,2013-06-16 09:11:00,
2013-06-15 23:21:00,67.8,61.0,29.92,East,97,5.0,12.0,79,0.00,FEW,SCT,0.00,0.0,WeatherDisplay:10.37,2013-06-16 09:21:00,
2013-06-15 23:31:00,67.8,60.7,29.91,East,100,7.0,12.0,78,0.00,FEW,SCT,0.00,0.0,WeatherDisplay:10.37,2013-06-16 09:31:00,
2013-06-15 23:41:00,67.8,61.0,29.91,East,81,6.0,14.0,79,0.00,FEW,SCT,0.00,0.0,WeatherDisplay:10.37,2013-06-16 09:41:00,
2013-06-15 23:51:00,67.7,60.2,29.91,East,95,7.0,12.0,77,0.00,FEW,SCT,0.00,0.0,WeatherDisplay:10.37,2013-06-16 09:51:00,